{"data":{"norad_id":62898,"intl_designator":"2025-024V","name":"STARLINK-32902","alt_names":[],"object_type":"PAYLOAD","status":"ACTIVE","operator":null,"country":"US","launch_date":"2025-02-04","launch_site_code":"AFETR","launch_vehicle":null,"mission":null,"orbit_class":"UNKNOWN","rcs_meters":null,"size_class":null,"mass_kg":null,"dimensions":null,"purposes":["comms"],"wikipedia_slug":null,"has_3d_model":false,"image_url":null,"decayed_at":null,"tle_current":{"epoch":"2026-09-21T03:36:08.357472Z","epoch_age_seconds":112047,"freshness":"FRESH","line1":"1 62898U 25024V   26264.15009673  .00012035  00000+0  44589-3 0  9990","line2":"2 62898  43.0019 301.1011 0001074 215.9113 144.1667 15.27599642 92160","mean_motion":15.27599642,"eccentricity":0.0001074,"inclination_deg":43.0019,"raan_deg":301.1011,"arg_perigee_deg":215.9113,"mean_anomaly_deg":144.1667,"bstar":0.00044589,"rev_number":9216,"period_min":94.265536624157,"perigee_km":482.25339638566,"apogee_km":483.72716652572,"semimajor_km":6861.1272814557,"source":"CELESTRAK","updated_at":"2026-09-22T09:00:49.705845Z"}}}